Regional Weather Roundup
Issued by NWS

Home | Current Version | Previous Version | Text Only | Print | Product List | Glossary Off
Versions: 1 2 3 4 5 6 7 8 9 10 11 12 13 14 15 16 17 18 19 20 21 22 23 24 25 26 27 28 29 30 31 32 33 34 35 36 37 38 39 40 41 42 43 44 45 46 47 48 49 50

000
ASUS43 KMPX 141301
RWRMN
WEATHER ROUNDUP FOR MINNESOTA
NATIONAL WEATHER SERVICE TWIN CITIES/CHANHASSEN MN
800 AM CDT SUN SEP 14 2014


NOTE: "FAIR" INDICATES FEW OR NO CLOUDS BELOW 12,000 FEET WITH NO
SIGNIFICANT WEATHER AND/OR OBSTRUCTIONS TO VISIBILITY. N/A MEANS
CURRENT SKY AND/OR WEATHER CONDITIONS ARE NOT AVAILABLE.

MNZ060>063-068>070-141400-
   Twin Cities Metro

CITY           SKY/WX    TMP DP  RH WIND       PRES   REMARKS
TWIN CITIES    MOSUNNY   50  43  77 SW13G20   30.13R
ST PAUL        CLOUDY    52  44  74 SW8       30.14R
CRYSTAL        MOSUNNY   52  43  71 SW10      30.11S
BLAINE         MOSUNNY   52  46  82 SW8       30.11S
LAKEVILLE      PTSUNNY   48  45  87 SW5       30.14R
EDEN PRAIRIE   MOSUNNY   49  44  83 SW7       30.13R
SOUTH ST PAUL  PTSUNNY   53  43  70 SW8       30.13R
LAKE ELMO      CLOUDY    52  45  76 SW10      30.13R
$$
MNZ001>005-007-008-013>017-022>024-027-028-141400-
   Northwest Minnesota

CITY           SKY/WX    TMP DP  RH WIND       PRES   REMARKS
BEMIDJI        CLOUDY    42  39  91 W8        30.02R
HALLOCK        CLOUDY    48  46  93 NW13      30.01R
ROSEAU         CLOUDY    48  43  81 W7        29.97R
WARROAD        CLOUDY    46  43  87 W8        29.97R
THIEF RVR FALL CLOUDY    45  43  93 W8        30.01R
CROOKSTON      CLOUDY    46  45  93 W9        30.04R
FOSSTON        CLOUDY    43  39  87 SW8       30.03R
DETROIT LAKES  PTCLDY    43  41  93 W9        30.07S
MOORHEAD       PTCLDY    45  45 100 W9        30.10R
PARK RAPIDS    CLOUDY    42  40  92 W7        30.05R
MAHNOMEN       CLOUDY    41  39  94 W10       30.04R
$$
MNZ006-009>011-018-025>026-141400-
   North Central Minnesota

CITY           SKY/WX    TMP DP  RH WIND       PRES   REMARKS
BAUDETTE       CLOUDY    47  45  93 VRB3      29.95R
FLAG ISLAND    CLOUDY    46  45  93 W16       29.93R
INTL FALLS     CLOUDY    46  43  89 SW13G20   29.93R
WASKISH        CLOUDY    48  45  87 W17       29.98R
BIG FORK       SUNNY     45  41  87 SW8       29.98S
LONGVILLE      SUNNY     45  41  87 W9        30.02S
GRAND RAPIDS   SUNNY     46  39  76 W7        30.01R
CRANE LAKE     PTSUNNY   46  43  87 SW3       29.95F
ORR            MOSUNNY   45  39  81 SW5       29.94R
COOK           SUNNY     46  43  87 SW8       29.97R
WALKER         FAIR      41  38  90 W7        30.03R
$$
MNZ012-019>021-037-141400-
   Northeast Minnesota

CITY           SKY/WX    TMP DP  RH WIND       PRES   REMARKS
DULUTH         MOSUNNY   48  43  82 SW10      30.01R
ELY            PTSUNNY   45  43  93 SW6       29.96S
HIBBING        SUNNY     45  41  86 SW5       29.99R
EVELETH        SUNNY     45  43  93 SW6       30.00R
DULUTH HARBOR  MOSUNNY   52  46  82 SW13      30.03R
TWO HARBORS    MOSUNNY   45  39  81 SW5       29.98F
SILVER BAY     MOSUNNY   46  46 100 SW5       29.98S
GRAND MARAIS     N/A     50  47  89 SW12      29.99S
G MARAIS ARPRT CLOUDY    45  41  87 S6        29.98S
$$
MNZ029>031-032-039>041-046>048-054>057-064-141400-
   West Central Minnesota

CITY           SKY/WX    TMP DP  RH WIND       PRES   REMARKS
FERGUS FALLS   CLEAR     39  37  93 W6        30.12R
WHEATON        CLEAR     43  37  81 W8        30.15R
MORRIS         CLEAR     43  39  87 W6        30.12R
ALEXANDRIA     CLEAR     46  40  79 W12       30.11R
ELBOW LAKE     FAIR      40  38  93 W9        30.11R
WADENA         CLEAR     41  39  93 SW6       30.06S
GLENWOOD       CLEAR     43  39  87 W9        30.11R
APPLETON       CLEAR     43  41  93 SW5       30.13S
BENSON         CLEAR     41  39  93 CALM      30.13R
ORTONVILLE     CLEAR     45  37  76 W8        30.14R
MADISON        CLEAR     45  43  93 W6        30.15R
WILLMAR        FAIR      43  39  87 SW3       30.15R
$$
MNZ033>034-036-042>043-049>051-058-059-141400-
   Central Minnesota

CITY           SKY/WX    TMP DP  RH WIND       PRES   REMARKS
ST CLOUD       SUNNY     48  44  86 SW8       30.09S
SAUK CENTRE    FAIR      41  39  93 W5        30.10S
PAYNESVILLE    SUNNY     40  40 100 SW6       30.13R
AITKIN         SUNNY     50  43  76 SW6       30.03S
PINE RIVER     SUNNY     45  39  81 SW5       30.07S
BRAINERD       SUNNY     45  42  89 W9        30.07R
STAPLES        SUNNY     43  39  87 SW9       30.07R
LONG PRAIRIE   FAIR      43  39  87 SW6       30.09R
LITTLE FALLS   SUNNY     43  41  93 CALM      30.08S
LITCHFIELD       N/A     46  45  93 W3        30.13R
BUFFALO        SUNNY     46  42  85 SW7       30.13S
MAPLE LAKE     SUNNY     47  45  93 SW3       30.13R
$$
MNZ037-044-045-052-053-141400-
   East Central Minnesota

CITY           SKY/WX    TMP DP  RH WIND       PRES   REMARKS
PRINCETON      SUNNY     48  45  87 CALM      30.10S
MORA           SUNNY     45  41  87 SW6       30.09S
CAMBRIDGE      SUNNY     52  41  66 S6        30.08S
RUSH CITY      SUNNY     49  44  81 SW5       30.09S
MOOSE LAKE     SUNNY     46  43  87 SW8       30.03R
HINCKLEY       FAIR      46  45  93 SW9       30.07S
CLOQUET        SUNNY     46  43  87 SW7       30.02S
MCGREGOR       SUNNY     46  43  87 SW5       30.04S
$$
MNZ071>073-080-081-089-090-097-098-141400-
   Southwest Minnesota

CITY           SKY/WX    TMP DP  RH WIND       PRES   REMARKS
MONTEVIDEO     CLEAR     46  43  87 NW5       30.15S
GRANITE FALLS  CLEAR     41  40  99 W6        30.17R
CANBY          CLEAR     46  40  81 W7        30.17R
MARSHALL       CLEAR     45  39  81 W5        30.15S
REDWOOD FALLS  SUNNY     46  42  86 W6        30.15R
OLIVIA         SUNNY     43  41  93 CALM      30.14R
PIPESTONE      CLEAR     41  39  93 CALM      30.16R
WINDOM         SUNNY     45  43  93 W5        30.16F
WORTHINGTON    CLEAR     43  43 100 SW6       30.17S
JACKSON        SUNNY     45  41  87 SW5       30.17F
TRACY          CLEAR     45  42  91 CALM      30.16S
SLAYTON        CLEAR     43  42  97 CALM      30.16S
$$
MNZ065>067-074>077-082>085-091>093-141400-
   South Central Minnesota

CITY           SKY/WX    TMP DP  RH WIND       PRES   REMARKS
MANKATO        SUNNY     46  39  76 SW7       30.15S
NEW ULM        SUNNY     45  45 100 W5        30.15S
ST JAMES       SUNNY     46  45  93 SW7       30.17S
FAIRMONT       SUNNY     48  41  76 SW6       30.18R
GLENCOE        SUNNY     46  42  86 SW3       30.13S
FARIBAULT      MOSUNNY   54  43  66 S8        30.15S
OWATONNA       SUNNY     48  43  81 S8        30.16S
WASECA         SUNNY     45  39  81 S8        30.18S
ALBERT LEA     SUNNY     52  45  76 SW7       30.18R
$$
MNZ078>079-086>088-094>096-141400-
   Southeast Minnesota

CITY           SKY/WX    TMP DP  RH WIND       PRES   REMARKS
ROCHESTER      PTSUNNY   50  42  74 S12       30.18S
RED WING       SUNNY     54  43  66 CALM      30.14S
STANTON        MOSUNNY   51  43  76 SW9       30.13S
DODGE CENTER   MOSUNNY   50  45  81 SW12      30.17R
WINONA         MOSUNNY   52  43  71 SW8       30.18S
AUSTIN         PTSUNNY   48  45  87 S8        30.18S
PRESTON        CLOUDY    48  46  92 SW10      30.20S
$$
ABBREVIATIONS USED IN REMARKS
   TC - TEMPERATURES IN CELSIUS
  WCI - WIND CHILL INDEX
   HX - HEAT INDEX
  VSB - VISIBILITY
$$


USA.gov is the U.S. government's official web portal to all federal, state and local government web resources and services.